Location: Erlenbrunn
(49.1717°N, 7.6142°E)
Time: 03:25:12
(UTC+00:00)

BREEZE-M DEB (TANK) - Pass Details

Date: 25 November 2020
Orbit: 298 x 20368 km, 49.3° (Epoch: 24 January)

Event Time Altitude Azimuth Distance (km) Brightness Sun altitude
Rises 17:22:59 0° 237° (WSW) 2,755 7.7 -16.7°
Reaches altitude 10° 17:25:37 10° 227° (SW) 1,365 5.7 -17.1°
Enters shadow 17:27:40 33° 171° (S) 535 2.8 -17.4°
